TimeEDT,TemperatureF,Dew PointF,Humidity,Sea Level PressureIn,VisibilityMPH,Wind Direction,Wind SpeedMPH,Gust SpeedMPH,PrecipitationIn,Events,Conditions,WindDirDegrees,DateUTC
12:53 AM,78.1,73.0,84,30.06,10.0,Calm,Calm,-,N/A,,Clear,0,2013-09-17 04:53:00
1:53 AM,78.1,73.0,84,30.05,10.0,Calm,Calm,-,N/A,,Partly Cloudy,0,2013-09-17 05:53:00
2:53 AM,77.0,73.9,90,30.05,10.0,Calm,Calm,-,N/A,,Clear,0,2013-09-17 06:53:00
3:53 AM,77.0,73.9,90,30.04,10.0,Calm,Calm,-,N/A,,Clear,0,2013-09-17 07:53:00
4:53 AM,77.0,73.9,90,30.04,10.0,North,4.6,-,N/A,,Clear,360,2013-09-17 08:53:00
5:53 AM,75.9,73.9,94,30.06,10.0,North,5.8,-,N/A,,Clear,350,2013-09-17 09:53:00
6:44 AM,75.2,73.4,94,30.08,10.0,North,4.6,-,N/A,,Mostly Cloudy,350,2013-09-17 10:44:00
6:53 AM,75.9,73.9,94,30.08,10.0,North,5.8,-,N/A,,Overcast,360,2013-09-17 10:53:00
7:18 AM,75.2,73.4,94,30.08,10.0,North,5.8,-,N/A,,Mostly Cloudy,360,2013-09-17 11:18:00
7:53 AM,77.0,73.9,90,30.09,10.0,North,4.6,-,N/A,,Partly Cloudy,10,2013-09-17 11:53:00
8:39 AM,77.0,73.4,89,30.11,10.0,ENE,5.8,-,N/A,Thunderstorm,Mostly Cloudy,70,2013-09-17 12:39:00
8:53 AM,77.0,70.0,79,30.13,10.0,ENE,9.2,-,N/A,Thunderstorm,Overcast,60,2013-09-17 12:53:00
9:04 AM,75.2,71.6,89,30.13,1.8,ENE,10.4,26.5,0.15,Rain-Thunderstorm,Heavy Rain,70,2013-09-17 13:04:00
9:08 AM,73.4,71.6,94,30.13,2.0,NE,16.1,24.2,0.15,Rain-Thunderstorm,Light Rain,50,2013-09-17 13:08:00
9:13 AM,73.4,71.6,94,30.14,6.0,NE,13.8,24.2,0.15,Rain-Thunderstorm,Light Thunderstorms and Rain,40,2013-09-17 13:13:00
9:32 AM,73.4,71.6,94,30.14,6.0,NNE,12.7,-,0.16,Rain,Light Rain,30,2013-09-17 13:32:00
9:53 AM,73.0,71.1,93,30.14,6.0,NNE,6.9,-,0.19,Rain,Light Rain,30,2013-09-17 13:53:00
10:53 AM,77.0,73.0,88,30.14,10.0,NE,8.1,-,0.01,Rain,Light Rain,40,2013-09-17 14:53:00
11:53 AM,81.0,73.9,79,30.14,10.0,ENE,11.5,-,N/A,,Mostly Cloudy,70,2013-09-17 15:53:00
12:21 PM,80.6,73.4,79,30.14,10.0,ENE,11.5,-,N/A,,Mostly Cloudy,70,2013-09-17 16:21:00
12:53 PM,82.0,73.0,74,30.13,10.0,ENE,11.5,-,N/A,,Mostly Cloudy,70,2013-09-17 16:53:00
1:53 PM,84.0,73.9,72,30.11,10.0,ENE,13.8,20.7,N/A,,Scattered Clouds,60,2013-09-17 17:53:00
2:53 PM,84.0,73.0,69,30.09,10.0,ENE,13.8,20.7,N/A,,Scattered Clouds,60,2013-09-17 18:53:00
3:00 PM,78.8,71.6,78,30.09,5.0,NNE,16.1,26.5,N/A,Thunderstorm,Haze,30,2013-09-17 19:00:00
3:05 PM,75.2,71.6,89,30.11,0.8,NNE,27.6,36.8,0.16,Rain-Thunderstorm,Heavy Thunderstorms and Rain,20,2013-09-17 19:05:00
3:11 PM,73.4,71.6,94,30.09,0.2,North,11.5,36.8,0.68,Fog-Rain-Thunderstorm,Heavy Thunderstorms and Rain,350,2013-09-17 19:11:00